Flag for Germany Weather past 2 weeks in Alsfeld, Hesse, Germany

Now
56 °F

Passing clouds.


Feels Like: 56 °F
Forecast: 48 / 58 °F
Wind: 3 mph from Southwest

Location: Fritzlar

Current Time: Sep 4, 2015 at 9:32:35 PM

Latest Report: Sep 4, 2015 at 9:00 PM


Visibility: 31 mi

Pressure: 29.94 "Hg

Humidity: 72%

Dew point: 47 °F

Location of AlsfeldLocation

Historic Weather in Alsfeld — Graph

°F

Alsfeld temperature yesterday

Maximum temperature yesterday: 65 °F (at 5:00 PM)
Minimum temperature yesterday: 51 °F (at 7:00 AM)
Average temperature yesterday: 57 °F

Past Weeks' High & Low Weather Summary

 TemperatureHumidityPressure
High89 °F (Aug 30, 5:00 PM)99% (Aug 21, 9:00 AM)30.32 "Hg (Aug 21, 9:00 AM)
Low48 °F (Sep 2, 7:00 AM)29% (Aug 22, 4:00 PM)29.64 "Hg (Aug 24, 3:00 PM)
Average64 °F74%29.98 "Hg
* Reported Aug 20 8:00 PM — Sep 4 8:00 PM, Alsfeld, Weather by CustomWeather, © 2015

Note: Actual official high and low records may vary slightly from our data, if they occured in-between our weather recording intervals... More about our weather records

Advertising

Alsfeld weather history for previous 24 hours

 ConditionsComfort  
Time TempWeatherWind HumidityBarometerVisibility
8:00 PM
Fri, Sep 4
58 °FOvercast.5 mph67%29.93 "Hg37 mi
7:00 PM59 °FOvercast.7 mph62%29.93 "Hg37 mi
6:00 PM60 °FOvercast.6 mph58%29.93 "Hg37 mi
5:00 PM61 °FPartly sunny.9 mph53%29.93 "Hg37 mi
4:00 PM64 °FPartly sunny.8 mph53%29.95 "Hg37 mi
3:00 PM60 °FOvercast.6 mph55%29.97 "Hg31 mi
2:00 PM59 °FOvercast.7 mph56%29.98 "Hg31 mi
1:00 PM61 °FPartly sunny.8 mph52%29.96 "Hg31 mi
12:00 PM59 °FPartly sunny.5 mph63%29.97 "Hg25 mi
11:00 AM58 °FScattered clouds.5 mph65%29.98 "Hg25 mi
10:00 AM56 °FScattered clouds.5 mph76%29.98 "Hg16 mi
9:00 AM54 °FScattered clouds.2 mph81%29.98 "Hg12 mi
8:00 AM51 °FPartly sunny.1 mph90%29.98 "Hg11 mi
7:00 AM49 °FFog.1 mph95%29.97 "Hg9 mi
6:00 AM50 °FPassing clouds.1 mph94%29.97 "Hg12 mi
5:00 AM50 °FOvercast.1 mph94%29.97 "Hg12 mi
4:00 AM51 °FOvercast.2 mph93%29.97 "Hg12 mi
3:00 AM51 °FOvercast.N/A91%29.98 "Hg14 mi
2:00 AM51 °FOvercast.1 mph94%29.98 "Hg14 mi
1:00 AM49 °FPassing clouds.N/A95%29.98 "Hg16 mi
10:00 PM
Thu, Sep 3
54 °FPassing clouds.5 mph82%29.96 "Hg19 mi
9:00 PM56 °FPassing clouds.2 mph83%29.95 "Hg19 mi
Weather by CustomWeather, © 2015

See weather overviewHow to use our weather pages